Wind_Speed
38 39 42 44 45 46 47 47 47 46 45 44 44 43 40 41 43 43 43 43 42 42 41 42 43 43 42 41 41 42 42 42 43 43 43 43 42 42 42 41 41 40 39 38
35 35 37 40 43 44 45 45 45 44 45 44 44 43 41 41 43 43 43 43 43 43 42 43 44 44 44 44 43 44 44 45 45 45 45 45 45 45 45 45 44 42 41 40
32 32 34 36 39 41 42 42 42 41 42 42 42 41 40 40 41 42 43 43 43 43 43 44 44 45 45 45 45 45 46 47 48 48 48 48 47 47 46 46 45 44 44 44
30 30 30 31 33 35 36 37 37 38 39 40 40 39 35 37 39 40 41 41 42 43 43 43 44 45 46 46 47 47 48 49 50 50 51 51 50 49 48 47 47 47 48 47
28 28 28 29 30 31 31 32 33 34 36 37 36 36 31 33 34 35 36 38 39 40 41 42 43 44 46 47 48 49 49 50 52 53 53 54 54 53 52 51 50 50 50 50
28 28 27 27 28 28 28 28 29 30 32 33 31 32 29 29 30 31 32 34 35 37 39 40 41 43 44 46 47 49 50 52 53 55 56 56 57 57 57 56 55 54 53 52
27 27 26 26 27 26 25 26 26 27 28 28 25 26 26 24 25 27 29 31 33 35 37 38 40 42 44 46 48 50 52 54 56 57 58 59 60 61 61 60 60 58 57 56
25 25 25 25 26 25 24 25 25 24 24 22 21 22 22 21 22 25 28 30 32 34 36 38 40 43 45 47 49 51 54 56 58 60 62 63 64 64 64 64 64 63 62 60
24 24 23 23 24 25 23 23 22 22 21 20 19 20 20 20 22 24 27 29 31 33 36 38 41 43 45 48 50 53 56 58 61 63 65 67 68 68 68 67 67 66 65 64
22 22 21 21 22 22 22 22 22 21 20 18 17 18 19 21 23 25 26 28 30 32 35 37 40 42 45 48 50 53 56 59 61 64 66 67 68 69 70 70 69 68 66 65
20 20 20 20 21 21 21 21 20 19 18 17 16 17 19 22 23 25 26 27 29 31 33 35 38 41 43 46 49 51 54 57 59 61 63 65 66 66 67 67 67 67 66 64
19 19 19 19 18 19 18 18 18 17 15 15 15 18 20 21 22 23 24 26 28 29 31 33 36 38 41 44 47 50 53 55 56 57 58 59 60 62 63 63 63 63 62 62
19 18 17 17 17 16 16 16 16 15 14 14 15 18 19 19 20 21 22 23 25 27 29 31 34 36 39 41 44 47 49 48 48 48 49 50 51 53 55 57 58 58 57 57
17 17 16 16 15 14 15 15 14 14 14 14 15 18 19 18 18 19 20 21 22 24 27 29 31 33 36 39 41 42 41 39 38 38 38 39 41 44 46 47 49 50 50 50
16 16 15 15 14 14 14 14 14 14 15 14 15 17 17 17 17 17 18 19 21 22 24 26 28 30 33 35 36 35 33 31 30 28 27 27 29 32 35 37 39 41 42 43
16 16 15 15 14 14 15 15 15 15 14 14 15 15 15 15 16 16 16 17 19 20 22 23 25 27 29 31 31 29 27 25 22 19 17 17 18 21 24 27 29 31 33 34
17 16 16 15 14 15 15 15 14 14 14 13 13 13 13 14 14 14 15 16 17 19 20 21 22 25 27 27 26 24 22 20 17 14 12 11 11 12 15 17 20 22 23 25
17 16 16 15 15 15 14 14 14 13 13 12 12 12 12 12 13 13 14 15 16 17 18 19 20 22 24 24 23 21 19 17 14 11 8 5 4 6 8 11 14 15 17 20
17 16 16 16 16 16 15 14 14 13 13 12 11 11 10 11 12 13 14 15 15 16 17 17 17 18 20 20 19 19 17 14 12 9 7 4 1 1 3 6 9 12 14 16
17 16 16 16 16 16 15 14 13 13 12 11 10 10 9 10 11 13 13 14 14 15 16 16 15 16 17 16 16 16 15 14 12 10 8 6 4 2 2 4 6 9 11 13
17 17 17 16 16 15 15 14 14 12 12 11 10 10 10 11 12 12 13 13 13 14 14 14 14 15 15 14 13 13 13 12 12 12 10 8 6 4 2 1 3 5 7 10
19 18 17 17 16 16 15 14 14 13 12 11 11 11 11 11 12 12 12 12 12 13 13 13 13 13 13 12 12 10 10 11 11 10 9 8 6 5 3 2 2 5 8 11
20 19 18 17 17 16 16 16 15 14 13 12 12 11 11 11 12 12 12 12 12 13 13 13 12 11 11 10 10 10 9 9 9 9 9 8 7 6 6 6 6 8 10 12
21 21 19 18 18 18 17 17 16 15 14 13 13 12 12 12 12 12 13 12 12 12 12 11 10 9 9 9 9 9 9 9 9 9 9 9 8 8 8 9 10 11 13 15
21 21 20 20 20 19 18 18 18 17 16 15 14 13 13 13 13 13 13 13 12 12 11 10 9 8 9 9 9 9 9 9 9 10 10 10 10 11 12 13 14 15 17 18
21 21 20 20 21 20 20 20 19 18 17 17 16 15 14 14 14 14 14 13 13 12 11 10 10 9 9 9 9 9 9 10 10 11 12 12 13 15 16 17 18 19 20 21
Wind_Direction
208 212 215 219 221 224 226 229 232 234 235 236 236 236 237 240 243 245 248 250 252 254 255 255 256 256 256 255 255 254 254 255 255 256 257 257 258 259 259 259 259 260 261 264
206 209 212 216 220 223 226 229 233 236 238 239 239 240 242 243 245 248 249 251 253 255 256 256 257 258 258 258 258 258 257 258 257 257 257 257 257 257 258 258 259 261 263 264
205 206 210 214 219 223 227 230 234 237 240 242 242 243 246 247 248 249 251 253 254 256 257 258 259 260 261 261 261 260 259 259 260 259 259 258 257 258 258 259 260 261 261 262
201 203 207 210 216 222 227 230 234 238 240 242 244 246 247 250 250 251 253 254 256 257 258 260 261 261 262 263 263 262 262 261 261 261 260 260 259 258 258 258 257 257 258 259
195 198 203 206 212 219 224 228 232 236 239 242 244 248 246 250 252 253 254 255 257 258 260 261 262 264 264 265 265 265 264 264 263 263 262 261 260 259 258 257 257 257 258 259
194 197 201 205 209 215 219 224 229 234 238 242 243 247 246 247 250 252 253 255 256 258 260 262 263 264 266 267 267 268 267 267 266 265 264 262 261 260 259 258 257 257 257 257
193 196 200 203 207 212 215 219 225 229 234 238 238 243 244 242 243 246 250 253 256 259 261 264 266 267 268 269 269 269 269 268 267 266 265 264 262 261 260 259 258 257 256 256
195 197 199 202 205 208 212 216 221 226 230 232 231 235 240 239 240 244 249 254 258 261 264 267 269 270 271 271 271 271 270 269 268 267 266 264 263 261 260 259 258 257 257 256
197 199 202 205 206 209 212 216 219 223 224 226 227 233 238 242 245 248 253 258 263 266 268 270 271 272 272 273 273 272 271 270 269 267 265 263 262 260 259 257 256 256 256 255
197 201 203 204 205 208 211 212 214 217 220 223 226 233 242 247 253 258 262 265 268 270 271 273 275 276 277 276 276 275 274 273 271 268 266 263 261 259 257 256 255 254 254 254
196 200 201 202 202 204 206 208 213 217 221 226 232 240 247 254 259 265 269 271 272 274 277 279 281 282 282 282 281 280 279 278 274 270 266 263 260 258 256 254 254 253 253 253
196 197 198 199 199 201 204 208 213 219 224 233 243 252 254 260 265 269 271 274 277 280 283 286 288 288 288 288 288 287 287 284 279 274 269 265 260 257 254 252 251 251 251 251
195 196 196 197 198 201 205 211 218 225 233 242 251 260 262 267 270 272 274 277 282 286 289 293 296 296 297 297 298 297 295 291 284 278 272 267 261 256 252 250 249 248 248 249
196 197 199 199 201 206 211 218 226 235 244 250 256 262 268 271 272 274 279 284 288 292 296 300 303 305 306 308 308 307 304 299 292 284 277 269 261 255 251 249 247 246 245 246
200 202 205 205 208 214 221 229 237 244 250 254 256 259 266 272 274 276 283 288 294 300 305 307 310 314 316 319 318 316 313 308 301 293 284 273 263 255 251 247 245 244 244 245
206 209 211 213 216 222 230 238 244 249 253 254 255 257 261 266 271 278 286 292 299 307 312 315 320 324 327 329 328 325 324 320 314 307 297 281 264 254 248 244 241 239 240 242
211 215 217 220 224 230 237 244 249 249 249 250 250 252 258 267 277 285 291 299 306 312 317 321 328 332 335 337 338 337 334 335 332 325 310 291 268 251 241 235 231 230 233 237
214 217 222 227 231 237 239 243 245 246 247 244 246 251 259 270 281 292 300 306 312 317 323 328 332 337 343 345 347 349 348 349 350 350 342 317 269 238 225 220 222 223 226 230
219 224 228 231 236 239 239 240 240 240 240 240 245 252 264 278 288 297 305 311 315 320 325 332 337 341 348 353 356 358 1 2 3 5 6 10 2 180 199 204 207 212 220 228
224 228 231 234 238 240 237 235 235 236 239 241 249 257 272 287 297 302 308 313 318 322 327 332 338 343 347 354 1 5 9 15 21 25 30 37 51 89 158 185 210 221 226 233
228 231 235 238 240 240 236 233 231 233 240 245 253 261 274 290 300 306 310 313 317 323 330 336 340 343 347 350 354 3 12 21 27 31 39 48 57 71 96 197 225 229 240 248
232 235 237 239 239 237 235 232 231 235 240 247 254 262 274 288 298 304 310 314 317 323 329 334 339 344 348 355 359 3 9 16 23 29 33 36 40 39 30 359 274 266 272 274
235 237 238 240 239 237 234 231 232 234 239 246 253 263 275 285 294 300 307 314 317 321 325 331 336 342 350 356 1 6 9 15 19 21 21 20 14 7 354 338 318 304 298 294
236 237 237 237 236 235 232 231 232 235 241 248 254 263 273 282 289 295 300 307 313 318 322 325 330 337 344 349 356 4 9 13 14 14 12 7 358 347 338 330 322 315 310 307
236 237 237 237 237 235 233 233 235 238 244 249 255 262 271 280 285 290 295 301 307 313 317 321 324 330 335 339 344 351 355 357 357 356 353 349 344 339 333 328 324 320 315 311
239 239 239 238 238 236 235 236 238 240 245 249 255 261 268 276 279 284 290 296 300 305 309 311 312 316 321 326 332 335 337 340 341 341 340 338 336 333 330 326 322 318 315 313
Height
5647 5657 5666 5676 5682 5689 5695 5701 5707 5713 5719 5725 5730 5736 5743 5746 5748 5751 5754 5756 5759 5761 5763 5763 5765 5766 5769 5771 5772 5773 5775 5776 5777 5778 5778 5779 5780 5781 5782 5782 5783 5783 5784 5784
5645 5654 5662 5668 5675 5682 5689 5695 5701 5707 5712 5718 5724 5729 5735 5738 5741 5743 5746 5748 5751 5753 5754 5755 5757 5758 5760 5762 5763 5765 5766 5767 5767 5768 5770 5771 5771 5772 5773 5773 5774 5775 5776 5776
5644 5652 5657 5664 5671 5678 5684 5690 5696 5701 5706 5711 5717 5723 5727 5730 5732 5735 5738 5740 5742 5744 5746 5747 5749 5750 5751 5753 5754 5755 5756 5757 5757 5758 5759 5761 5761 5762 5763 5764 5765 5766 5766 5766
5640 5647 5654 5661 5668 5673 5680 5685 5690 5696 5701 5705 5711 5715 5720 5721 5724 5727 5730 5732 5734 5736 5738 5739 5740 5741 5742 5743 5744 5745 5745 5746 5746 5747 5748 5749 5751 5752 5754 5754 5755 5755 5755 5756
5639 5645 5651 5658 5664 5669 5675 5680 5685 5690 5694 5699 5704 5707 5713 5714 5717 5720 5722 5724 5726 5728 5729 5730 5731 5732 5733 5733 5734 5734 5734 5735 5735 5735 5736 5737 5738 5740 5741 5742 5743 5743 5744 5745
5637 5643 5649 5654 5660 5666 5671 5676 5681 5685 5689 5695 5699 5701 5705 5708 5710 5712 5714 5716 5718 5720 5721 5722 5722 5723 5723 5723 5723 5723 5723 5723 5722 5722 5723 5723 5725 5726 5727 5728 5730 5731 5732 5733
5635 5641 5647 5652 5657 5662 5668 5673 5677 5681 5685 5690 5693 5695 5699 5702 5704 5706 5708 5709 5711 5712 5713 5714 5714 5714 5714 5713 5713 5712 5711 5710 5709 5708 5708 5708 5709 5710 5712 5713 5715 5716 5718 5720
5634 5640 5645 5650 5654 5659 5664 5669 5674 5678 5681 5685 5688 5690 5694 5697 5699 5700 5702 5703 5704 5705 5705 5705 5705 5705 5704 5703 5702 5700 5699 5697 5695 5693 5692 5692 5692 5693 5695 5696 5698 5701 5703 5706
5633 5638 5643 5647 5652 5657 5661 5665 5670 5674 5677 5681 5684 5687 5690 5691 5693 5694 5696 5697 5698 5698 5697 5697 5696 5695 5693 5692 5689 5687 5684 5682 5679 5676 5675 5674 5673 5674 5676 5678 5680 5683 5687 5690
5632 5637 5641 5646 5650 5654 5659 5663 5667 5670 5674 5677 5681 5683 5685 5686 5687 5688 5690 5690 5690 5689 5688 5687 5685 5684 5681 5679 5676 5672 5669 5665 5661 5658 5655 5654 5653 5654 5656 5658 5662 5665 5669 5673
5632 5636 5641 5644 5648 5652 5657 5661 5663 5667 5671 5674 5677 5681 5680 5680 5681 5682 5683 5682 5682 5681 5680 5678 5675 5672 5669 5665 5661 5657 5652 5647 5642 5638 5634 5633 5633 5633 5635 5639 5643 5648 5652 5657
5631 5636 5639 5643 5647 5650 5654 5658 5661 5665 5668 5670 5672 5677 5674 5675 5675 5676 5676 5675 5674 5673 5671 5668 5665 5662 5657 5652 5647 5641 5634 5627 5622 5617 5614 5612 5612 5613 5616 5620 5625 5631 5637 5642
5631 5635 5639 5643 5648 5650 5653 5656 5659 5662 5664 5666 5668 5671 5669 5669 5669 5669 5669 5668 5667 5665 5663 5659 5656 5651 5646 5639 5632 5624 5616 5609 5603 5598 5595 5593 5593 5595 5599 5604 5609 5615 5622 5628
5631 5635 5639 5643 5645 5648 5651 5653 5656 5658 5660 5662 5663 5664 5663 5664 5664 5664 5663 5662 5660 5658 5656 5652 5647 5642 5635 5628 5620 5611 5602 5594 5589 5584 5581 5579 5579 5581 5586 5591 5597 5603 5610 5616
5631 5634 5637 5640 5643 5646 5648 5651 5653 5655 5656 5658 5659 5659 5659 5659 5659 5659 5658 5657 5655 5652 5649 5644 5640 5634 5626 5619 5610 5601 5593 5585 5579 5574 5571 5569 5570 5572 5576 5582 5587 5594 5600 5606
5629 5633 5635 5638 5641 5643 5645 5647 5649 5651 5652 5654 5654 5655 5655 5655 5655 5654 5653 5652 5649 5646 5643 5638 5633 5627 5620 5612 5603 5595 5588 5581 5575 5570 5567 5565 5566 5568 5571 5576 5581 5587 5593 5599
5628 5631 5634 5637 5639 5641 5643 5645 5646 5647 5648 5649 5650 5651 5651 5651 5651 5650 5649 5646 5644 5641 5637 5633 5628 5622 5615 5607 5600 5593 5586 5580 5574 5569 5566 5564 5565 5566 5569 5573 5578 5583 5588 5594
5626 5628 5631 5634 5637 5638 5642 5641 5642 5643 5645 5646 5646 5647 5647 5647 5646 5645 5644 5642 5639 5636 5633 5629 5624 5619 5612 5605 5599 5592 5586 5581 5576 5572 5569 5567 5567 5568 5570 5573 5577 5581 5586 5591
5624 5626 5629 5631 5633 5635 5637 5638 5639 5640 5641 5642 5643 5643 5644 5643 5642 5641 5640 5637 5635 5632 5629 5625 5621 5616 5611 5605 5599 5593 5588 5583 5579 5575 5573 5571 5571 5571 5573 5575 5579 5582 5586 5589
5621 5623 5626 5627 5629 5631 5634 5635 5635 5638 5638 5639 5639 5640 5640 5639 5639 5638 5636 5634 5631 5629 5625 5622 5618 5614 5609 5605 5600 5595 5591 5586 5582 5579 5577 5575 5575 5575 5576 5578 5580 5583 5585 5588
5618 5620 5622 5623 5625 5627 5630 5631 5632 5635 5636 5636 5636 5636 5636 5636 5636 5635 5632 5630 5628 5625 5622 5619 5616 5612 5608 5605 5601 5597 5593 5590 5586 5583 5581 5580 5579 5579 5580 5581 5582 5584 5586 5588
5614 5616 5618 5620 5622 5626 5625 5627 5629 5631 5631 5632 5632 5633 5633 5632 5632 5630 5629 5627 5625 5622 5620 5617 5614 5611 5608 5604 5601 5598 5595 5592 5589 5587 5585 5584 5583 5583 5583 5583 5584 5585 5586 5586
5610 5613 5614 5617 5620 5620 5621 5623 5625 5626 5627 5628 5629 5629 5629 5629 5628 5627 5625 5624 5622 5620 5617 5615 5613 5610 5607 5604 5602 5599 5596 5594 5591 5589 5588 5587 5586 5585 5585 5584 5584 5584 5584 5584
5606 5607 5610 5612 5614 5615 5617 5619 5621 5622 5624 5625 5625 5625 5625 5625 5624 5623 5622 5621 5619 5617 5615 5613 5611 5609 5607 5604 5602 5599 5597 5595 5593 5591 5589 5588 5587 5586 5585 5584 5584 5583 5581 5580
5601 5603 5605 5607 5609 5611 5613 5615 5617 5618 5619 5620 5621 5621 5621 5621 5621 5620 5619 5617 5616 5614 5613 5611 5609 5607 5605 5603 5601 5599 5597 5595 5593 5592 5590 5588 5587 5586 5584 5583 5581 5579 5578 5576
5596 5599 5601 5603 5605 5607 5609 5610 5612 5614 5615 5616 5617 5617 5617 5617 5617 5616 5615 5614 5613 5611 5610 5608 5607 5605 5604 5602 5600 5598 5596 5594 5593 5591 5589 5587 5586 5584 5582 5580 5578 5576 5574 5571